Skip Page Navigation
NASA JPL Caltech
NASA Logo - Jet Propulsion Laboratory + View the NASA Portal
+ Near-Earth Object (NEO) Program
Search JPL
JPL Home Earth Solar System Stars & Galaxies Technology
JPL Solar System Dynamics
BODIES ORBITS EPHEMERIDES TOOLS PHYSICAL DATA DISCOVERY FAQ SITE MAP
JPL Small-Body Database Browser
Search: [ help ]  
24710 (1991 PX14)
Classification: Main-belt Asteroid          SPK-ID: 2024710
Ephemeris | Orbit Diagram | Orbital Elements | Physical Parameters | Discovery Circumstances | Close-Approach Data ]

[ show orbit diagram ]
Orbital Elements at Epoch 2457000.5 (2014-Dec-09.0) TDB
Reference: JPL 13 (heliocentric ecliptic J2000)
 Element Value Uncertainty (1-sigma)   Units 
e .1488898747782507 6.5766e-08  
a 2.367504409893046 1.32e-08 AU
q 2.015006974767114 1.541e-07 AU
i 5.451637388390182 5.3674e-06 deg
node 260.546833847579 7.4753e-05 deg
peri 69.94645055489954 7.7575e-05 deg
M 145.0555609589827 2.2263e-05 deg
tp 2456464.374451039619
(2013-Jun-20.87445104)
8.1069e-05 JED
period 1330.560485580511
3.64
1.1128e-05
3.047e-08
d
yr
n .2705626718224203 2.2628e-09 deg/d
Q 2.720001845018978 1.5166e-08 AU
  Orbit Determination Parameters
   # obs. used (total)      736  
   data-arc span      23286 days (63.75 yr)  
   first obs. used      1951-09-09  
   last obs. used      2015-06-11  
   planetary ephem.      DE431  
   SB-pert. ephem.      SB431-BIG16  
   condition code      0  
   fit RMS      .51413  
   data source      ORB  
   producer      Otto Matic  
   solution date      2015-Jul-06 12:35:31  

Additional Information
 Earth MOID = 1.01244 AU 
 T_jup = 3.526 
[ show covariance matrix ]

Ephemeris | Orbit Diagram | Orbital Elements | Physical Parameters | Discovery Circumstances | Close-Approach Data ]

Physical Parameter Table
Parameter Symbol Value Units Sigma Reference Notes
absolute magnitude H 14.8 mag n/a MPO333046  

24710 (1991 PX14)          Discovered 1991-Aug-06 by Holt, H. E. at Palomar
Reference: 20010606/Numbers.arcLast Updated: 2004-04-19

[ show close-approach data ]
Alternate Designations
 1991 PX14 = 1977 XL1 
Ephemeris | Orbit Diagram | Orbital Elements | Physical Parameters | Discovery Circumstances | Close-Approach Data ]
ABOUT SSD CREDITS/AWARDS PRIVACY/COPYRIGHT GLOSSARY LINKS
FirstGov 2015-Aug-31 06:47 UT
(server date/time)  
NASA Home Page
Site Manager:   Ryan S. Park
Webmaster  Alan B. Chamberlin